Weather reports worldwide

Advertisment
Alicante, Spain (8359): temperature & dewpoint: 20.10.2020 23:00:00 - 26.10.2020 23:00:00 (CET)Alicante, Spain (8359): wind speed: 20.10.2020 23:00:00 - 26.10.2020 23:00:00 (CET)Alicante, Spain (8359): wind direction: 20.10.2020 23:00:00 - 26.10.2020 23:00:00 (CET)Alicante, Spain (8359): reduced air pressure: 20.10.2020 23:00:00 - 26.10.2020 23:00:00 (CET)Alicante, Spain (8359): visibility: 20.10.2020 23:00:00 - 26.10.2020 23:00:00 (CET)Alicante, Spain (8359): precipitation: 20.10.2020 23:00:00 - 26.10.2020 23:00:00 (CET)
Date & Time tt [°C] td [°C] ff [km/h] ff [kn] dd ppp [hPa] vv [km] rr [mm]
26.10.2020 23:00:00 - - - - - - - -
26.10.2020 22:00:00 15,3 0,3 11 6 NW 1019,4 20 -
26.10.2020 21:00:00 15,6 0,9 11 6 WNW 1019,0 20 0,0
26.10.2020 20:00:00 15,9 1,6 9 5 W 1019,0 20 0,0
26.10.2020 19:00:00 16,7 1,5 9 5 W 1018,5 20 -
26.10.2020 18:00:00 17,8 1,3 13 7 WNW 1017,3 20 0,0
26.10.2020 17:00:00 19,1 1,6 15 8 WNW 1016,8 20 0,0
26.10.2020 16:00:00 20,7 1,5 15 8 W 1015,8 20 -
26.10.2020 15:00:00 20,7 2,0 16 9 WNW 1015,0 20 0,0
26.10.2020 14:00:00 20,4 1,8 18 10 WNW 1015,3 20 0,0
26.10.2020 13:00:00 19,9 2,3 18 10 WNW 1015,6 30 -
26.10.2020 12:00:00 19,0 3,6 18 10 WNW 1015,5 20 0,0
26.10.2020 11:00:00 17,9 4,1 21 11 WNW 1015,6 20 0,0
26.10.2020 10:00:00 17,1 3,7 24 13 NW 1015,5 20 -
26.10.2020 09:00:00 15,4 4,4 21 11 NW 1015,1 20 0,0
26.10.2020 08:00:00 16,3 5,0 18 10 NW 1014,0 20 0,0
26.10.2020 07:00:00 17,3 5,9 18 10 WNW 1012,5 20 -
26.10.2020 06:00:00 17,5 6,7 15 8 WNW 1012,2 20 0,0
26.10.2020 05:00:00 17,7 8,0 13 7 WNW 1012,1 20 0,0
26.10.2020 04:00:00 17,8 10,2 9 5 NW 1011,8 20 -
26.10.2020 03:00:00 15,7 8,0 5 3 NW 1011,2 20 0,0
26.10.2020 02:00:00 16,3 7,8 5 3 SW 1011,0 20 0,0
26.10.2020 01:00:00 15,8 7,5 5 3 SSW 1011,7 20 -
26.10.2020 00:00:00 15,2 8,0 4 2 SW 1012,5 20 0,0
25.10.2020 23:00:00 15,1 10,1 2 1 WNW 1012,8 20 0,0
25.10.2020 22:00:00 15,5 10,7 4 2 W 1013,1 20 -
25.10.2020 21:00:00 16,6 12,1 0 0 N 1013,4 20 0,0
25.10.2020 20:00:00 18,1 13,4 4 2 N 1013,8 19 0,0
25.10.2020 19:00:00 19,0 12,7 4 2 SSW 1014,1 20 -
25.10.2020 18:00:00 20,5 11,4 5 3 SW 1014,1 20 0,0
25.10.2020 17:00:00 21,7 11,7 11 6 SSW 1014,2 20 0,0
25.10.2020 16:00:00 21,7 13,8 18 10 S 1014,6 20 -
25.10.2020 15:00:00 22,6 11,9 18 10 S 1015,1 20 0,0
25.10.2020 14:00:00 24,2 8,6 15 8 S 1015,8 20 0,0
25.10.2020 13:00:00 23,9 8,3 18 10 S 1017,0 20 -
25.10.2020 12:00:00 24,6 5,9 8 4 WSW 1018,1 20 0,0
25.10.2020 11:00:00 22,9 7,4 8 4 W 1018,9 20 0,0
25.10.2020 10:00:00 21,0 7,6 9 5 W 1019,5 20 -
25.10.2020 09:00:00 16,7 8,6 4 2 SE 1019,6 20 0,0
25.10.2020 08:00:00 13,2 7,8 4 2 N 1019,5 20 0,0
25.10.2020 07:00:00 13,8 7,8 4 2 W 1019,2 20 -
25.10.2020 06:00:00 15,9 7,9 4 2 W 1019,4 20 0,0
25.10.2020 05:00:00 15,9 8,1 5 3 WNW 1019,5 20 0,0
25.10.2020 04:00:00 15,7 8,2 5 3 WNW 1019,7 20 -
25.10.2020 03:00:00 14,9 7,9 8 4 NW 1020,5 20 0,0
25.10.2020 02:00:00 14,0 8,0 4 2 WNW 1021,1 20 0,0
25.10.2020 01:00:00 - - - - - - - -
25.10.2020 00:00:00 14,9 9,9 5 3 WNW 1022,0 20 0,0
24.10.2020 23:00:00 15,1 11,3 2 1 NW 1022,4 19 0,0
24.10.2020 22:00:00 16,0 12,4 2 1 NW 1022,4 20 -
24.10.2020 21:00:00 17,1 12,6 2 1 NW 1022,4 20 0,0
24.10.2020 20:00:00 18,2 13,3 5 3 WSW 1022,3 20 0,0
24.10.2020 19:00:00 18,8 14,9 9 5 SSW 1022,1 19 -
24.10.2020 18:00:00 19,8 13,7 15 8 SSW 1022,0 20 0,0
24.10.2020 17:00:00 21,6 11,0 18 10 SSW 1021,9 20 0,0
24.10.2020 16:00:00 23,5 11,9 16 9 S 1021,8 20 -
24.10.2020 15:00:00 25,2 5,4 13 7 WSW 1022,2 20 0,0
24.10.2020 14:00:00 24,8 7,4 11 6 W 1023,0 20 0,0
24.10.2020 13:00:00 24,2 6,9 13 7 W 1023,9 17 -
24.10.2020 12:00:00 23,3 6,5 13 7 W 1024,7 20 0,0
24.10.2020 11:00:00 22,0 5,8 11 6 WNW 1025,2 20 0,0
24.10.2020 10:00:00 20,4 7,0 4 2 WNW 1025,7 20 -
24.10.2020 09:00:00 17,0 7,3 4 2 WNW 1025,5 20 0,0
24.10.2020 08:00:00 13,3 7,1 2 1 WSW 1025,0 20 0,0
24.10.2020 07:00:00 14,9 6,7 4 2 WNW 1024,8 20 -
24.10.2020 06:00:00 15,4 6,9 8 4 NNW 1024,8 20 0,0
24.10.2020 05:00:00 15,2 7,0 4 2 NW 1024,6 20 0,0
24.10.2020 04:00:00 15,9 6,3 5 3 WNW 1024,4 20 -
24.10.2020 03:00:00 15,5 6,5 8 4 NW 1024,7 20 0,0
24.10.2020 02:00:00 16,1 6,8 4 2 SE 1024,6 20 0,0
24.10.2020 01:00:00 15,9 6,3 8 4 NW 1024,6 20 -
24.10.2020 00:00:00 17,3 6,2 5 3 WNW 1024,4 20 0,0
23.10.2020 23:00:00 16,6 5,8 8 4 WNW 1024,3 20 0,0
23.10.2020 22:00:00 16,5 7,2 5 3 NNW 1023,9 20 -
23.10.2020 21:00:00 17,3 7,6 5 3 NNW 1023,2 20 0,0
23.10.2020 20:00:00 18,4 11,5 5 3 W 1022,7 20 0,0
23.10.2020 19:00:00 19,8 13,7 8 4 SW 1022,1 20 -
23.10.2020 18:00:00 20,8 12,2 9 5 SSW 1021,3 20 0,0
23.10.2020 17:00:00 22,4 13,2 11 6 S 1021,1 20 0,0
23.10.2020 16:00:00 25,4 5,6 9 5 W 1020,5 20 -
23.10.2020 15:00:00 25,1 6,3 8 4 W 1020,3 20 0,0
23.10.2020 14:00:00 24,9 6,6 11 6 WSW 1020,3 20 0,0
23.10.2020 13:00:00 24,3 7,4 15 8 W 1020,9 20 -
23.10.2020 12:00:00 23,7 9,3 11 6 WNW 1021,1 20 0,0
23.10.2020 11:00:00 22,5 8,9 11 6 WNW 1021,4 20 0,0
23.10.2020 10:00:00 20,3 10,1 8 4 WNW 1021,2 20 -
23.10.2020 09:00:00 17,5 11,1 9 5 NW 1020,9 20 0,0
23.10.2020 08:00:00 15,7 11,9 8 4 WNW 1020,3 20 0,0
23.10.2020 07:00:00 15,3 13,1 4 2 WNW 1019,5 18 -
23.10.2020 06:00:00 15,6 14,5 2 1 N 1019,2 6 0,0
23.10.2020 05:00:00 15,6 14,5 4 2 WNW 1018,3 7 0,0
23.10.2020 04:00:00 16,3 15,0 2 1 W 1017,8 8 -
23.10.2020 03:00:00 17,0 15,9 2 1 SW 1017,9 7 0,0
23.10.2020 02:00:00 17,3 16,0 4 2 NNW 1017,6 9 0,0
23.10.2020 01:00:00 17,7 16,2 4 2 SSW 1017,9 9 -
23.10.2020 00:00:00 18,0 16,3 2 1 SW 1017,8 9 0,0
22.10.2020 23:00:00 18,5 16,7 5 3 SW 1017,6 12 0,0
22.10.2020 22:00:00 18,9 17,2 4 2 WSW 1017,3 9 -
22.10.2020 21:00:00 19,2 17,9 4 2 SSW 1016,6 6 0,0
22.10.2020 20:00:00 19,3 17,3 4 2 E 1016,0 13 0,6
22.10.2020 19:00:00 20,1 18,4 2 1 ESE 1015,4 7 -
22.10.2020 18:00:00 20,3 18,8 5 3 E 1014,7 7 0,0
22.10.2020 17:00:00 20,5 18,6 5 3 E 1014,6 10 0,0
22.10.2020 16:00:00 20,8 17,2 5 3 ENE 1013,9 14 -
22.10.2020 15:00:00 21,0 17,2 2 1 N 1013,8 10 0,4
22.10.2020 14:00:00 21,2 16,8 2 1 W 1014,2 9 0,4
22.10.2020 13:00:00 21,9 17,3 4 2 W 1014,3 10 -
22.10.2020 12:00:00 22,1 15,9 2 1 E 1014,5 13 0,0
22.10.2020 11:00:00 21,6 14,7 4 2 N 1014,1 15 0,0
22.10.2020 10:00:00 20,8 14,2 5 3 NNE 1014,2 12 -
22.10.2020 09:00:00 19,5 14,5 4 2 NNW 1014,0 7 0,0
22.10.2020 08:00:00 18,7 13,5 0 0 N 1013,3 13 0,0
22.10.2020 07:00:00 18,6 13,9 2 1 SSE 1013,0 15 -
22.10.2020 06:00:00 18,6 13,7 2 1 WNW 1013,0 14 0,0
22.10.2020 05:00:00 18,6 13,7 4 2 WNW 1012,8 13 0,0
22.10.2020 04:00:00 18,6 13,9 2 1 W 1013,0 16 -
22.10.2020 03:00:00 18,7 14,6 4 2 N 1013,6 15 0,0
22.10.2020 02:00:00 18,8 14,3 2 1 NNW 1013,9 15 0,0
22.10.2020 01:00:00 19,2 14,0 5 3 ENE 1013,7 14 -
22.10.2020 00:00:00 19,2 16,1 2 1 ENE 1013,9 14 0,0
21.10.2020 23:00:00 19,5 16,2 2 1 NNW 1013,7 14 0,0
21.10.2020 22:00:00 20,1 17,1 5 3 NNE 1013,8 14 -
21.10.2020 21:00:00 20,5 16,9 5 3 ENE 1013,4 13 0,0
21.10.2020 20:00:00 21,2 16,2 4 2 E 1012,8 14 0,0
21.10.2020 19:00:00 21,8 16,3 8 4 NE 1012,4 15 -
21.10.2020 18:00:00 22,4 16,2 2 1 ENE 1012,3 15 0,0
21.10.2020 17:00:00 22,9 16,7 5 3 SSE 1012,0 15 0,0
21.10.2020 16:00:00 24,2 17,2 9 5 SSE 1011,8 17 -
21.10.2020 15:00:00 24,8 17,3 15 8 S 1011,5 17 0,0
21.10.2020 14:00:00 26,1 16,4 9 5 SSE 1011,5 19 0,0
21.10.2020 13:00:00 25,2 15,5 11 6 SSE 1011,9 15 -
21.10.2020 12:00:00 26,5 13,6 8 4 S 1012,1 17 0,0
21.10.2020 11:00:00 25,0 14,2 9 5 S 1012,1 13 0,0
21.10.2020 10:00:00 23,3 12,6 4 2 SSW 1012,1 10 -
21.10.2020 09:00:00 18,7 12,7 2 1 W 1011,6 7 0,0
21.10.2020 08:00:00 18,1 12,5 2 1 W 1011,1 7 0,0
21.10.2020 07:00:00 18,1 12,5 2 1 WSW 1010,2 8 -
21.10.2020 06:00:00 18,4 11,9 5 3 NNW 1009,4 8 0,0
21.10.2020 05:00:00 18,6 13,0 4 2 NW 1008,8 7 0,0
21.10.2020 04:00:00 19,7 13,4 5 3 NNE 1007,9 6 -
21.10.2020 03:00:00 19,7 11,5 9 5 NNE 1008,1 7 0,0
21.10.2020 02:00:00 18,5 11,6 5 3 N 1008,7 11 0,0
21.10.2020 01:00:00 18,7 12,2 5 3 NNE 1008,7 16 -
21.10.2020 00:00:00 17,7 12,2 5 3 ENE 1009,1 19 0,0
20.10.2020 23:00:00 17,5 14,9 2 1 NW 1009,5 17 0,0

tt = temperature
td = dewpoint
ff = wind speed
dd = wind direction
ppp = reduced air pressure
vv = visibility
rr = precipitation

Next stations